Theta_e
352 353 357 359 349 355 362 363 358 358 356 351 348 351 352 354 355 352 347 344 341 340 346 348 351 351 351 351 350 352 352 352 352 353 351 352 353 352 352 347 352 351 352 352 352 352 352 350 349
356 360 361 355 354 353 357 359 358 358 352 349 351 352 355 358 350 348 346 343 340 336 346 348 350 350 352 349 351 351 352 352 353 353 355 353 353 352 353 351 351 353 354 353 352 350 350 350 351
358 360 350 358 355 357 353 357 358 356 351 354 354 350 353 355 349 346 347 344 341 336 344 348 350 350 352 351 352 352 352 352 354 352 348 352 352 352 352 353 352 351 351 351 350 349 349 348 350
358 358 352 353 357 356 354 357 357 358 356 355 351 354 350 349 347 348 346 344 337 338 341 349 351 351 352 351 353 352 351 351 352 352 353 353 353 353 353 352 352 352 350 352 350 348 348 351 351
351 351 350 352 354 353 351 352 357 359 357 354 351 355 352 349 349 347 345 343 336 337 341 349 349 351 351 351 351 353 351 351 351 350 352 353 353 352 353 352 352 351 350 350 350 351 350 351 350
349 348 353 352 351 352 350 351 355 358 355 353 354 354 352 349 348 347 343 340 336 336 340 349 350 351 351 352 352 351 352 352 352 352 351 350 352 352 352 352 352 352 352 350 349 349 351 350 348
347 344 346 350 349 353 351 350 354 357 356 354 351 354 349 349 348 348 345 339 336 337 337 345 349 350 351 351 352 352 352 351 350 350 352 351 351 352 350 350 350 351 352 352 351 349 349 343 344
346 341 346 347 352 351 351 354 353 355 356 349 348 355 354 348 348 347 345 343 341 340 339 340 344 348 350 348 351 353 352 352 352 352 352 352 351 351 351 352 349 352 351 350 351 351 346 344 346
339 339 341 346 350 349 352 354 355 348 354 352 350 349 347 349 347 348 348 348 347 345 340 341 340 344 346 344 347 353 354 353 353 353 353 351 353 352 350 349 342 344 339 344 350 351 350 342 345
336 336 338 338 344 348 352 352 350 353 356 354 351 349 349 349 349 350 350 350 351 350 345 343 342 342 344 342 343 352 352 353 353 352 352 351 350 348 345 340 342 340 339 342 343 343 350 349 341
333 336 335 335 339 345 351 348 345 354 356 352 352 350 348 351 350 351 349 348 349 350 350 349 347 345 345 342 342 351 350 352 352 352 351 352 350 343 345 342 342 343 341 341 342 342 343 341 340
335 333 334 333 340 347 347 344 354 353 353 350 348 348 348 351 350 351 350 349 350 349 349 350 347 343 343 344 342 345 349 350 351 351 350 350 350 345 344 344 341 342 342 339 339 342 343 342 342
332 330 329 332 339 345 344 344 349 354 350 347 347 348 349 349 350 350 350 349 350 349 347 348 346 343 343 346 345 344 346 348 348 348 348 348 345 342 344 344 344 345 344 340 339 339 342 341 341
333 330 328 330 332 341 345 343 347 351 348 349 350 348 348 349 349 350 350 350 350 348 349 350 351 349 347 348 346 343 344 343 344 343 344 344 343 344 344 346 346 344 344 345 342 344 342 341 340
330 330 328 330 332 332 340 345 348 351 348 350 348 349 351 350 350 350 350 349 350 349 348 347 346 349 349 347 346 343 340 340 342 341 342 342 342 344 345 347 347 345 345 346 346 345 346 345 342
329 327 329 330 330 330 334 337 341 351 349 349 348 349 349 348 350 352 351 351 351 350 349 347 347 347 345 345 345 344 341 344 346 345 345 344 346 347 347 348 347 347 347 347 347 346 346 347 346
327 330 332 331 332 332 332 339 343 351 350 350 349 349 352 349 347 348 351 352 351 351 351 348 341 341 346 343 344 344 343 345 347 348 347 346 346 347 348 348 347 347 347 348 347 346 346 346 347
331 331 330 331 330 341 341 342 343 346 352 351 350 351 344 350 348 347 348 348 348 350 350 349 347 347 348 345 344 346 345 346 346 348 349 348 347 348 348 348 348 348 348 349 348 346 345 347 345
329 329 330 330 333 342 343 343 344 348 352 353 351 353 341 344 346 347 347 348 347 347 346 345 344 346 349 349 348 348 348 348 348 350 350 349 348 349 349 348 348 349 349 349 348 347 346 345 346
329 330 328 329 341 342 341 339 342 341 349 351 351 346 349 342 347 344 345 341 344 348 348 345 339 342 347 348 348 348 350 349 347 348 350 350 349 350 349 350 350 349 350 349 348 348 346 345 347
328 329 327 329 340 339 339 339 337 338 335 341 344 344 342 339 340 346 344 346 340 342 348 349 347 347 349 349 348 348 348 345 339 345 346 350 350 350 350 351 351 350 350 350 349 348 347 348 349
329 325 328 328 338 342 334 344 334 337 336 339 340 338 344 341 338 341 345 346 346 344 348 349 348 345 343 349 352 350 340 341 338 342 350 352 353 352 352 352 352 351 351 350 350 350 349 348 348
327 324 323 329 326 335 334 334 331 337 335 334 336 333 336 338 338 339 342 344 345 345 346 347 341 344 343 346 349 351 340 343 343 345 344 342 344 344 346 352 352 351 351 351 350 349 348 349 348
326 322 318 316 318 323 327 333 331 336 335 336 339 338 337 344 346 346 346 346 346 345 344 343 341 343 345 347 348 352 352 348 343 343 344 346 346 348 349 347 350 352 351 350 349 349 350 350 350
318 318 321 324 324 323 333 336 332 333 338 338 340 339 345 348 349 351 352 353 349 345 344 343 342 345 346 348 352 353 341 341 343 344 345 345 345 346 347 347 347 351 350 348 348 347 349 350 351
320 318 321 326 325 329 334 336 332 336 339 339 340 340 347 350 348 351 354 354 349 348 346 345 347 350 356 356 351 340 340 341 342 343 344 345 345 344 347 347 347 347 345 344 344 344 344 347 349
321 320 318 328 333 333 334 340 337 338 338 339 338 340 349 351 350 351 353 357 355 352 352 353 353 356 355 351 341 338 341 342 342 342 343 343 344 344 344 346 345 344 343 344 343 343 346 346 347
320 318 323 326 336 342 336 346 342 340 340 338 337 344 351 351 351 349 352 357 358 358 358 357 357 354 351 346 340 338 339 340 341 340 341 341 342 343 345 343 344 346 345 344 343 344 346 346 348
324 325 326 328 328 333 339 339 335 337 335 337 337 346 350 352 351 350 351 354 357 357 357 356 353 352 350 346 344 338 338 341 344 345 345 344 344 345 344 344 344 341 341 342 344 344 345 346 347
328 325 328 329 337 334 334 335 335 338 337 335 335 338 348 350 350 349 349 348 352 356 356 355 354 353 350 350 348 348 346 345 345 346 346 345 344 344 346 345 344 344 342 341 342 341 343 344 347
Wind_Speed
7 6 4 3 4 5 2 2 1 3 2 2 3 4 5 3 3 3 8 19 34 33 28 23 22 19 17 18 19 20 21 21 20 19 18 17 16 17 15 14 15 14 14 15 15 15 15 15 15
5 2 2 1 5 4 4 2 2 2 2 4 6 3 3 2 4 9 13 25 34 34 29 25 23 22 18 18 18 19 19 19 19 19 18 17 15 15 14 13 13 14 13 15 15 15 14 14 14
3 4 3 4 3 2 2 2 3 1 3 2 3 5 2 2 6 16 10 34 36 33 30 26 24 22 19 18 17 18 18 18 17 17 17 16 15 14 14 14 12 13 12 12 13 14 14 14 14
5 3 3 4 2 2 4 2 3 1 2 3 4 5 4 1 12 11 29 35 37 33 30 25 22 20 18 18 18 17 18 17 15 15 15 14 14 13 12 12 13 11 12 12 11 12 13 14 14
4 3 4 4 5 3 1 1 3 2 2 3 2 3 3 1 11 25 32 35 36 34 31 26 23 20 18 17 17 17 16 16 14 13 13 14 14 13 11 10 10 11 12 11 11 10 11 12 11
3 2 4 3 3 4 2 1 1 1 4 3 5 5 3 12 22 29 33 35 34 34 32 27 23 21 17 16 15 15 15 15 14 13 12 12 12 12 11 9 9 8 9 9 9 10 9 10 9
3 3 2 3 3 2 2 4 2 3 4 2 7 4 2 4 17 23 27 32 32 31 32 29 25 22 18 16 15 15 14 13 13 13 12 11 11 10 9 8 8 7 7 8 9 9 10 9 9
2 2 0 4 2 4 5 6 4 4 1 6 4 5 4 8 19 20 23 25 28 29 30 29 28 25 22 19 17 17 15 14 14 13 12 12 11 10 9 8 7 7 8 8 9 9 10 11 9
3 3 2 4 6 5 8 6 4 1 5 2 4 6 11 28 24 21 19 20 23 26 30 30 29 27 24 22 20 18 17 17 16 14 13 12 12 12 9 10 10 9 9 11 11 10 10 11 11
3 2 6 7 6 6 9 6 9 3 3 2 7 14 29 30 26 22 21 20 23 26 30 31 31 29 26 24 23 21 20 19 19 17 16 15 14 14 15 13 13 11 10 13 12 13 13 12 13
3 4 4 6 5 8 10 5 4 8 3 6 9 16 19 23 20 20 20 22 24 25 24 30 31 29 27 27 26 24 23 22 22 21 20 18 15 15 16 15 15 14 12 12 15 14 15 16 15
3 9 5 5 7 4 8 8 6 11 6 7 15 21 17 18 16 19 20 23 27 29 29 27 31 30 30 28 28 27 25 25 24 23 21 20 20 18 17 17 16 17 14 14 16 15 15 16 15
3 5 7 7 7 5 6 7 6 6 4 13 16 17 16 13 17 18 19 21 24 29 32 31 31 31 31 30 28 27 27 26 25 23 23 22 21 19 18 18 17 16 14 12 14 16 16 15 14
4 7 10 5 5 5 7 3 6 5 12 13 15 15 13 16 18 16 18 23 28 20 15 16 24 29 31 32 31 28 29 27 25 23 23 23 22 21 19 18 16 17 15 14 13 11 14 16 15
5 6 8 3 6 6 7 3 4 9 15 16 13 12 13 13 18 22 27 26 21 24 20 20 23 26 30 32 33 30 29 29 26 24 23 22 22 22 22 20 19 18 18 15 14 15 14 13 15
5 5 5 5 5 4 4 7 4 11 16 14 13 12 10 7 18 23 28 21 24 25 25 16 29 28 32 34 34 33 30 29 27 25 24 24 23 23 23 23 22 17 14 14 13 14 14 16 15
7 2 4 9 6 4 3 3 1 6 11 12 10 9 8 6 9 22 19 24 27 29 26 30 26 23 30 32 34 34 30 30 29 29 28 26 25 23 24 24 23 22 16 15 14 13 14 15 15
4 4 5 4 7 6 2 1 6 2 8 9 7 7 6 8 9 14 15 19 25 28 28 27 27 23 26 28 32 32 28 30 31 30 30 29 26 23 23 22 23 21 19 17 17 17 15 15 15
2 2 5 5 3 4 3 4 5 1 6 7 7 7 7 9 3 14 10 14 22 26 22 20 23 25 26 27 29 29 30 31 32 25 29 29 28 26 24 25 23 23 23 20 19 18 18 17 17
3 1 6 4 4 4 1 5 4 3 2 4 6 6 8 4 6 13 19 16 20 23 26 20 18 17 24 24 26 18 13 10 20 25 25 24 29 28 27 26 26 25 24 23 21 21 19 19 15
2 3 4 6 2 4 4 4 4 1 1 5 5 6 7 10 11 9 15 21 21 21 19 19 19 14 17 20 23 24 15 14 20 18 25 28 27 28 30 29 28 28 26 26 25 24 23 20 13
6 8 5 2 4 4 2 3 5 4 6 4 5 5 9 9 7 8 10 17 24 22 15 12 11 10 9 6 12 13 8 19 20 30 35 28 23 26 26 30 30 29 29 29 25 24 23 24 18
8 5 3 2 3 4 3 3 7 3 6 5 5 7 7 8 8 8 10 16 15 18 18 16 8 11 7 9 9 9 12 20 28 27 24 24 24 23 22 26 28 31 29 28 25 22 22 23 23
4 4 8 6 2 3 2 4 6 5 7 4 4 6 7 5 5 4 6 8 10 12 13 16 7 9 8 12 8 8 3 7 6 10 16 19 21 21 18 19 22 28 27 25 24 20 20 19 21
6 6 2 2 4 5 1 1 10 4 6 7 7 4 7 3 5 4 5 3 3 11 14 14 11 8 9 9 4 2 3 5 4 8 13 17 20 20 19 14 17 23 19 12 14 13 13 15 18
4 7 6 5 4 4 1 5 5 3 5 3 4 1 4 5 2 6 1 4 10 10 13 14 12 8 4 5 6 5 5 6 10 12 13 15 18 20 17 11 14 16 13 8 6 6 8 14 16
3 3 4 8 4 3 3 7 7 7 10 4 6 8 8 6 6 7 7 11 15 14 13 14 13 10 9 8 5 6 7 8 7 9 12 13 15 16 14 7 6 10 9 8 3 4 7 11 16
4 6 4 3 4 3 5 6 6 4 8 7 6 8 7 6 6 7 7 11 14 17 17 16 14 13 11 8 4 4 3 5 8 11 13 14 14 14 13 10 5 8 8 7 6 5 9 11 11
1 2 7 6 4 5 2 6 7 7 8 10 7 7 8 8 8 5 1 13 17 16 16 14 12 13 12 8 3 3 4 7 10 12 13 13 14 16 13 9 9 8 8 7 2 6 10 11 15
3 5 5 5 4 1 2 6 1 5 5 6 8 9 9 7 8 10 16 24 14 15 13 12 10 9 10 7 3 2 2 5 9 11 13 14 16 17 19 9 9 5 8 9 7 5 7 10 17
Wind_Direction
147 166 179 155 51 56 37 323 304 334 334 57 138 149 165 96 169 206 153 161 155 157 157 158 147 148 139 140 135 137 138 138 133 127 122 123 121 122 119 119 118 118 122 121 121 119 119 119 125
138 143 230 57 74 45 298 240 267 267 93 98 101 100 69 97 75 125 133 165 160 157 158 159 152 150 144 143 142 141 142 142 136 132 129 127 121 121 123 126 133 130 129 128 124 127 129 129 132
54 28 74 79 92 99 273 341 334 57 139 52 88 56 51 110 97 149 161 162 160 159 161 159 155 152 151 150 147 148 147 148 146 140 136 134 133 132 133 134 138 136 136 132 133 133 135 137 139
7 14 42 80 113 178 192 282 225 275 273 147 109 63 70 168 146 172 156 161 161 162 163 159 159 156 155 153 153 155 155 156 151 146 141 142 141 138 139 138 144 144 142 143 135 134 140 144 147
12 54 31 21 349 327 292 233 153 170 22 39 62 51 88 44 143 149 157 165 165 165 166 163 164 162 161 160 159 158 161 163 162 158 155 155 150 148 150 146 151 151 153 151 146 144 147 155 155
45 52 30 344 310 326 319 285 6 354 80 141 87 104 157 139 140 153 162 168 171 169 171 169 171 169 168 168 169 167 168 169 169 165 168 167 161 160 158 157 157 164 161 159 158 157 165 170 170
132 106 184 290 304 307 236 135 286 141 130 132 136 94 29 130 141 150 162 172 175 175 177 179 181 181 184 183 180 178 181 179 177 179 180 179 174 174 170 172 177 184 186 181 178 176 181 188 184
129 87 145 228 202 269 154 152 182 154 157 111 135 153 176 155 140 148 162 172 178 183 187 189 190 193 196 196 195 189 189 191 193 193 195 194 191 194 190 201 205 214 210 208 200 201 200 198 192
138 74 245 229 156 232 152 173 139 4 123 115 140 149 142 139 142 144 155 170 183 192 196 198 199 200 202 203 200 198 197 199 205 206 208 209 209 202 210 224 228 229 239 231 218 217 218 212 208
114 118 222 211 203 196 174 166 140 116 170 27 71 94 128 139 148 153 167 177 188 197 203 204 205 204 204 204 203 205 204 208 213 215 215 221 222 223 218 231 235 229 253 250 238 226 221 226 225
192 217 251 250 170 180 166 162 124 132 272 212 163 142 143 146 160 169 182 187 194 201 205 208 208 208 206 205 207 208 214 216 220 221 221 223 230 236 234 239 239 251 270 246 239 238 233 229 231
268 241 219 276 135 143 160 138 124 169 224 172 154 153 151 161 173 181 186 190 198 204 208 209 211 209 212 213 214 215 220 223 226 227 229 228 232 235 239 243 248 252 280 258 237 242 241 243 241
179 308 335 291 132 169 143 170 152 199 132 124 135 155 166 173 182 192 194 201 202 208 211 212 214 214 216 218 223 225 227 230 232 233 233 235 237 243 244 249 252 257 265 248 239 242 242 244 247
271 295 299 263 171 148 160 130 134 144 135 139 146 163 173 181 187 194 201 203 207 208 214 221 227 223 223 225 225 230 234 236 237 239 238 238 243 246 247 251 255 254 256 247 237 243 242 245 246
284 327 335 247 169 187 138 96 214 143 146 158 156 160 174 191 192 199 207 204 207 208 201 219 239 231 233 232 234 232 239 240 240 243 241 239 241 248 249 251 255 255 252 251 238 242 246 247 242
20 43 347 347 3 342 109 259 275 149 150 170 171 156 169 192 205 208 212 203 199 199 201 195 224 231 233 233 238 238 241 245 246 247 247 245 244 247 252 252 252 262 255 252 240 247 252 252 243
15 328 1 321 38 326 92 225 346 142 157 173 180 182 166 192 227 218 210 206 200 209 207 207 220 225 230 234 240 243 244 248 252 253 251 250 249 253 253 254 252 249 253 255 250 250 252 256 259
308 345 315 286 317 47 73 142 22 139 166 177 179 191 187 216 228 230 214 206 203 214 223 221 225 226 230 235 241 246 249 253 255 257 254 250 250 253 254 255 256 257 255 251 247 246 249 249 255
199 198 283 274 245 77 354 55 16 252 150 170 197 198 209 228 256 235 211 210 210 205 209 219 229 230 228 232 234 241 247 258 261 258 257 253 251 253 257 257 259 254 255 253 249 246 245 251 252
206 330 290 295 19 91 326 56 62 29 153 187 181 220 216 222 218 240 239 230 225 230 226 228 235 241 235 240 243 242 280 287 323 305 276 263 259 261 255 256 255 254 250 248 244 239 240 249 246
234 205 243 243 67 63 131 12 341 309 285 191 179 207 239 219 220 216 234 232 231 228 234 246 246 256 256 264 263 256 267 336 4 331 291 281 274 269 264 259 253 252 248 246 247 241 236 239 241
307 186 229 204 104 185 32 255 262 247 292 215 208 216 239 244 218 230 203 218 221 227 224 235 239 234 249 245 249 256 268 249 246 271 290 294 288 281 274 262 256 251 249 247 248 247 247 242 235
248 48 354 92 109 112 6 64 267 30 263 246 201 236 234 233 218 229 230 227 218 221 219 215 241 245 264 222 257 236 224 255 254 274 295 308 304 290 279 268 258 250 245 245 246 250 252 249 245
216 101 35 45 76 35 334 137 284 194 202 198 188 214 233 208 240 247 265 255 203 185 206 210 224 225 220 212 269 278 214 214 282 331 333 335 332 324 304 275 262 253 243 244 246 251 250 249 259
87 65 343 341 20 222 120 61 241 225 216 183 181 197 176 186 174 66 335 337 147 163 171 193 202 215 210 216 238 178 84 55 34 355 347 353 351 347 333 295 262 242 223 219 227 238 248 252 256
159 153 152 204 189 252 111 240 258 235 160 179 262 220 157 173 173 98 313 108 104 142 157 166 182 171 159 137 138 120 68 45 29 15 3 5 2 4 348 337 231 178 184 201 221 256 276 267 259
179 175 167 104 24 54 283 292 300 237 259 238 218 178 181 167 148 132 198 147 128 134 139 145 146 141 134 132 129 122 45 34 22 9 2 358 360 1 3 352 204 211 206 193 218 274 309 286 271
192 152 69 15 124 229 297 288 245 237 202 174 183 177 163 155 153 166 172 140 136 135 133 140 143 140 138 136 127 158 57 16 0 349 341 337 340 337 345 350 293 241 224 232 241 310 332 322 288
152 92 55 110 101 156 217 265 219 216 201 175 176 167 172 181 162 161 103 144 134 134 137 140 144 145 148 150 138 222 321 353 357 353 348 345 343 334 312 311 321 274 222 203 292 316 319 318 296
210 177 132 122 217 172 159 269 168 262 195 172 144 166 178 171 67 36 33 18 349 149 148 151 162 167 161 160 138 55 14 25 28 20 13 8 5 5 5 310 301 301 239 244 256 283 282 318 307